Вернуться в каталог

SL-14 DEB

АктивенPO
NORAD 45334·DEBRIS·🇷🇺 Russia

Запущен Aug 15, 1991 с Plesetsk Cosmodrome

Loading…

Ближайшие Пролёты (ближайшие 24 часа)

TLE

СвежийSource: Space-Track

Эпоха: Sep 13, 2026, 03:16 UTC

1 45334U 91056BY  26256.13664928  .00000176  00000-0  36361-3 0  9996
2 45334  82.5547  49.9164 0046810 118.7849 241.7992 13.26747208317096

Отслеживайте SL-14 DEB в реальном времени с AllMySat

Download on the App Store